NOAA 16 DEB

Satellite information

Favourite Embed

Satellite Type and Status

DEBRISIN ORBIT

Key statistics

Satellite NOAA 16 DEB at a glance.

Uptime

9161

Days in orbit

Revolutions

≈ 14.0

Per day

Orbit

SSO

Sun Synchronous Orbit

Inclination

98.9

Latest

Satellite identification and parameters

Extended collection of information and parameters for NOAA 16 DEB.

Object identification

Identified? True

Debris? True

Object name: NOAA 16 DEB

International designator: 2000-055DV

Object number (NORAD): 41216

Object ID (CCSDS): 41216

Country: UNITED STATES OF AMERICA (US)

Current information (Y/N): Y

RCS size: SMALL

Orbital parameters

Period: 102.928 minutes

Inclination: 98.9124 deg

SMA: 7275.293 km

Apoapsis: 968.327 km

Periapsis: 825.989 km

RAAN: 245.3113 deg

Eccentricy: 0.00978227

Argument of periapsis: 131.103 deg

Mean anomaly: 229.8632 deg

Mean motion: 13.99029994 rev/day

Mean motion (dot): 0.00003487 rev/day2

B* drag term: 0.0023421401 1/REarth

Two-line elements (TLE)

Creation date: Oct. 20, 2025, 2:10 a.m.

Reference frame: TEME

Reference center: EARTH

Epoch: Oct. 19, 2025, 4:58 p.m. UTC

TLE line 0: 0 NOAA 16 DEB

TLE line 1: 1 41216U 00055DV 25292.70718832 .00003487 00000-0 23421-2 0 9996

TLE line 2: 2 41216 98.9124 245.3113 0097823 131.1030 229.8632 13.99029994500749

Live tracking on map

Real-time ground track for satellite NOAA 16 DEB.

In-orbit conjunctions

A list of the most updated potential collisions computed for object NOAA 16 DEB.

Target Orbit TCA Probability of collision Miss distance Type
DELTA 2 R/B LEO 2024-11-14 02:49:57 0.000231766 408.0 (m) ROCKET BODY
FENGYUN 1C DEB SSO 2024-09-14 03:25:02 0.0001116767 62.0 (m) DEBRIS

Associated space launch

The NOAA K, L and M POES satellites begin the fifth generation of improved environmental monitoring in support of NOAA missions. The instrument payload has significant improvements and additions/deletions. The instrument changes have effected the spacecraft subsystems and data formats.

NOAA 16 DEB was lifted into orbit during the mission ‘Titan II SLV | NOAA 16’, on board a Titan II SLV space rocket.

The launch took place on Sept. 21, 2000, 10:22 a.m. from Space Launch Complex 4W.

For more information about the launch, click the button.

Launch to space Titan II SLV | NOAA 16
Titan II SLV | NOAA 16

Agency: N/A

Status: Launch Successful

Launch date: Sept. 21, 2000, 10:22 a.m. UTC

Rocket: Titan II SLV

Launch pad: Space Launch Complex 4W

Location: Vandenberg SFB, CA, USA

...

Latest news about this satellite

There are no fresh news available about this satellite. Check back as we update our databases every day.


Newsletter sign-up

Weekly statistics, charts and insights to help you stay on top of the space industry.